Monett, MO

11:16 PM CDT on October 17, 2019 (GMT -0500)
Monett

Weather History for KHFJ - September, 2019

Change the Weather History Date:

Saturday, September 21, 2019

  Actual Average (KJLN) Record (KJLN)
Temperature  
Mean Temperature 78 °F -  
Max Temperature 86 °F 77 °F 95 °F (1956)
Min Temperature 71 °F 55 °F 35 °F (1983)
Cooling Degree Days 14    
Growing Degree Days 28 (Base 50)    
Moisture  
Dew Point 68 °F    
Average Humidity 77    
Maximum Humidity 94    
Minimum Humidity 51    
Precipitation  
Precipitation 0.00 in - - ()
Sea Level Pressure  
Sea Level Pressure 30.06 in    
Wind  
Wind Speed 11 mph ()    
Max Wind Speed 22 mph    
Max Gust Speed 31 mph    
Visibility 10.0 miles    
Events      
Averages and records for this station are not official NWS values.
T = Trace of Precipitation, MM = Missing Value Source: Averaged Metar Reports

Daily Weather History Graph

Daily Weather History Graph

Search for Another Location

Airport or City:

Astronomy

Sep. 21, 2019 Rise Set
Actual Time 7:02 AM CDT 7:14 PM CDT
Civil Twilight 6:37 AM CDT 7:40 PM CDT
Nautical Twilight 6:06 AM CDT 8:10 PM CDT
Astronomical Twilight 5:35 AM CDT 8:41 PM CDT
Moon No Moon Rise 2:00 PM CDT (9/21)
Length of Visible Light 13h 03m
Length of Day
12h 11m
Waning Gibbous, 54% of the Moon is Illuminated
Sep 21
Waning Gibbous
Sep 21
Last Quarter
Sep 28
New
Oct 5
First Quarter
Oct 13
Full

Hourly Weather History & Observations

Time (CDT) Temp. Heat Index Dew Point Humidity Pressure Visibility Wind Dir Wind Speed Gust Speed Precip Events Conditions
12:15 AM 71.6 °F - 69.8 °F 94% 30.06 in 10.0 mi South 8.1 mph - N/A   Mostly Cloudy
12:35 AM 71.6 °F - 69.8 °F 94% 30.05 in 10.0 mi SSE 9.2 mph - N/A   Mostly Cloudy
12:55 AM 71.6 °F - 69.8 °F 94% 30.06 in 10.0 mi South 9.2 mph - N/A   Scattered Clouds
1:15 AM 71.6 °F - 69.8 °F 94% 30.06 in 10.0 mi South 10.4 mph - N/A   Scattered Clouds
1:35 AM 71.6 °F - 69.8 °F 94% 30.06 in 10.0 mi SSE 9.2 mph - N/A   Scattered Clouds
1:55 AM 71.6 °F - 69.8 °F 94% 30.06 in 10.0 mi SSE 9.2 mph - N/A   Scattered Clouds
2:55 AM 71.6 °F - 69.8 °F 94% 30.05 in 10.0 mi SSE 10.4 mph - N/A   Scattered Clouds
3:15 AM 71.6 °F - 69.8 °F 94% 30.05 in 10.0 mi SSE 10.4 mph - N/A   Clear
3:35 AM 71.6 °F - 69.8 °F 94% 30.05 in 10.0 mi SSE 10.4 mph - N/A   Scattered Clouds
3:55 AM 71.6 °F - 69.8 °F 94% 30.05 in 10.0 mi SSE 9.2 mph - N/A   Clear
4:15 AM 71.6 °F - 69.8 °F 94% 30.05 in 10.0 mi SSE 11.5 mph 16.1 mph N/A   Clear
4:35 AM 71.6 °F - 69.8 °F 94% 30.05 in 10.0 mi SSE 12.7 mph - N/A   Clear
4:55 AM 71.6 °F - 69.8 °F 94% 30.05 in 10.0 mi South 10.4 mph 18.4 mph N/A   Scattered Clouds
5:15 AM 71.6 °F - 69.8 °F 94% 30.06 in 10.0 mi South 11.5 mph - N/A   Mostly Cloudy
5:35 AM 71.6 °F - 69.8 °F 94% 30.07 in 10.0 mi South 13.8 mph 17.3 mph N/A   Mostly Cloudy
5:55 AM 71.6 °F - 68.0 °F 88% 30.08 in 10.0 mi South 11.5 mph 17.3 mph N/A   Overcast
6:35 AM 71.6 °F - 68.0 °F 88% 30.09 in 10.0 mi South 10.4 mph 16.1 mph N/A   Overcast
6:55 AM 71.6 °F - 68.0 °F 88% 30.09 in 10.0 mi SSE 6.9 mph - N/A   Overcast
7:15 AM 71.6 °F - 68.0 °F 88% 30.09 in 10.0 mi South 9.2 mph - N/A   Overcast
7:35 AM 71.6 °F - 68.0 °F 88% 30.10 in 10.0 mi South 10.4 mph - N/A   Overcast
7:55 AM 71.6 °F - 68.0 °F 88% 30.10 in 10.0 mi South 10.4 mph 18.4 mph N/A   Overcast
8:15 AM 71.6 °F - 68.0 °F 88% 30.10 in 10.0 mi South 11.5 mph - N/A   Scattered Clouds
8:35 AM 71.6 °F - 68.0 °F 88% 30.11 in 10.0 mi South 12.7 mph 18.4 mph N/A   Scattered Clouds
8:55 AM 71.6 °F - 68.0 °F 88% 30.11 in 10.0 mi South 15.0 mph 18.4 mph N/A   Mostly Cloudy
9:15 AM 71.6 °F - 68.0 °F 88% 30.11 in 10.0 mi South 16.1 mph 19.6 mph N/A   Mostly Cloudy
9:35 AM 73.4 °F - 68.0 °F 83% 30.11 in 10.0 mi South 13.8 mph 23.0 mph N/A   Scattered Clouds
9:55 AM 77.0 °F - 68.0 °F 74% 30.11 in 10.0 mi South 20.7 mph 26.5 mph N/A   Scattered Clouds
10:15 AM 77.0 °F - 68.0 °F 74% 30.11 in 10.0 mi South 21.9 mph 27.6 mph N/A   Mostly Cloudy
10:35 AM 77.0 °F - 68.0 °F 74% 30.11 in 10.0 mi South 17.3 mph 26.5 mph N/A   Overcast
10:55 AM 78.8 °F - 68.0 °F 69% 30.11 in 10.0 mi SSW 21.9 mph 26.5 mph N/A   Overcast
11:15 AM 78.8 °F - 68.0 °F 69% 30.12 in 10.0 mi SSW 16.1 mph - N/A   Overcast
11:55 AM 78.8 °F - 68.0 °F 69% 30.11 in 10.0 mi South 18.4 mph 28.8 mph N/A   Mostly Cloudy
12:15 PM 78.8 °F - 68.0 °F 69% 30.11 in 10.0 mi South 16.1 mph - N/A   Overcast
12:35 PM 80.6 °F 83.2 °F 68.0 °F 65% 30.10 in 10.0 mi South 17.3 mph 21.9 mph N/A   Mostly Cloudy
12:55 PM 80.6 °F 82.7 °F 66.2 °F 61% 30.10 in 10.0 mi SSW 21.9 mph 28.8 mph N/A   Mostly Cloudy
1:15 PM 82.4 °F 84.6 °F 66.2 °F 58% 30.09 in 10.0 mi SSW 20.7 mph 25.3 mph N/A   Overcast
1:35 PM 82.4 °F 85.4 °F 68.0 °F 62% 30.07 in 10.0 mi SSW 16.1 mph 25.3 mph N/A   Mostly Cloudy
1:55 PM 82.4 °F 84.6 °F 66.2 °F 58% 30.06 in 10.0 mi South 20.7 mph 27.6 mph N/A   Mostly Cloudy
2:15 PM 84.2 °F 86.6 °F 66.2 °F 55% 30.05 in 10.0 mi South 18.4 mph 31.1 mph N/A   Scattered Clouds
2:35 PM 82.4 °F 84.6 °F 66.2 °F 58% 30.05 in 10.0 mi SSW 19.6 mph 27.6 mph N/A   Scattered Clouds
2:55 PM 82.4 °F 85.4 °F 68.0 °F 62% 30.05 in 10.0 mi SSW 17.3 mph 21.9 mph N/A   Scattered Clouds
3:15 PM 82.4 °F 85.4 °F 68.0 °F 62% 30.05 in 10.0 mi South 16.1 mph 20.7 mph N/A   Mostly Cloudy
3:35 PM 84.2 °F 87.3 °F 68.0 °F 58% 30.05 in 10.0 mi South 18.4 mph 24.2 mph N/A   Mostly Cloudy
3:55 PM 86.0 °F 88.2 °F 66.2 °F 51% 30.04 in 10.0 mi South 17.3 mph 25.3 mph N/A   Scattered Clouds
4:15 PM 86.0 °F 88.2 °F 66.2 °F 51% 30.04 in 10.0 mi South 18.4 mph 24.2 mph N/A   Scattered Clouds
4:35 PM 82.4 °F 83.9 °F 64.4 °F 54% 30.04 in 10.0 mi South 17.3 mph 25.3 mph N/A   Scattered Clouds
4:55 PM 82.4 °F 83.9 °F 64.4 °F 54% 30.03 in 10.0 mi South 16.1 mph 24.2 mph N/A   Mostly Cloudy
5:15 PM 82.4 °F 83.9 °F 64.4 °F 54% 30.03 in 10.0 mi South 13.8 mph - N/A   Overcast
5:55 PM 80.6 °F 82.7 °F 66.2 °F 61% 30.03 in 10.0 mi South 13.8 mph 20.7 mph N/A   Overcast
6:15 PM 80.6 °F 82.7 °F 66.2 °F 61% 30.04 in 10.0 mi South 10.4 mph - N/A   Mostly Cloudy
6:35 PM 80.6 °F 82.7 °F 66.2 °F 61% 30.04 in 10.0 mi South 11.5 mph - N/A   Scattered Clouds
6:55 PM 78.8 °F - 66.2 °F 65% 30.04 in 10.0 mi South 11.5 mph 16.1 mph N/A   Scattered Clouds
7:15 PM 78.8 °F - 66.2 °F 65% 30.04 in 10.0 mi South 10.4 mph - N/A   Scattered Clouds
7:35 PM 77.0 °F - 66.2 °F 69% 30.03 in 10.0 mi SSE 10.4 mph - N/A   Scattered Clouds
8:00 PM 77.0 °F - 66.2 °F 69% 30.04 in 10.0 mi SSE 8.1 mph - N/A   Clear
8:15 PM 75.2 °F - 66.2 °F 73% 30.04 in 10.0 mi SSE 8.1 mph - N/A   Clear
8:35 PM 75.2 °F - 66.2 °F 73% 30.04 in 10.0 mi SSE 8.1 mph - N/A   Clear
8:55 PM 75.2 °F - 66.2 °F 73% 30.04 in 10.0 mi SSE 9.2 mph - N/A   Clear
9:15 PM 75.2 °F - 68.0 °F 78% 30.04 in 10.0 mi SSE 6.9 mph - N/A   Clear
9:35 PM 75.2 °F - 68.0 °F 78% 30.03 in 10.0 mi SSE 10.4 mph - N/A   Clear
9:55 PM 73.4 °F - 68.0 °F 83% 30.03 in 10.0 mi SSE 10.4 mph - N/A   Clear
10:15 PM 73.4 °F - 68.0 °F 83% 30.03 in 10.0 mi SSE 10.4 mph - N/A   Clear
10:35 PM 73.4 °F - 68.0 °F 83% 30.03 in 10.0 mi SSE 9.2 mph - N/A   Clear
10:55 PM 73.4 °F - 68.0 °F 83% 30.03 in 10.0 mi SSE 9.2 mph - N/A   Clear
11:15 PM 73.4 °F - 68.0 °F 83% 30.01 in 10.0 mi SSE 10.4 mph - N/A   Clear
11:35 PM 73.4 °F - 68.0 °F 83% 30.02 in 10.0 mi SSE 9.2 mph - N/A   Clear
11:55 PM 73.4 °F - 66.2 °F 78% 30.02 in 10.0 mi SSE 10.4 mph - N/A   Clear